Regional Weather Roundup
Issued by NWS Jackson, KY

Home | Current Version | Previous Version | Text Only | Print | Product List | Glossary On
Versions: 1 2 3 4 5 6 7 8 9 10 11 12 13 14 15 16 17 18 19 20 21 22 23 24 25 26 27 28 29 30 31 32 33 34 35 36 37 38 39 40 41 42 43 44 45 46 47 48 49 50
582
ASUS43 KJKL 191110
RWRJKL

EAST KENTUCKY HOURLY WEATHER ROUNDUP
NATIONAL WEATHER SERVICE JACKSON KY
600 AM EST THU JAN 19 2017

NOTE: "FAIR" INDICATES FEW OR NO CLOUDS BELOW 12,000 FEET WITH
NO SIGNIFICANT WEATHER AND/OR OBSTRUCTIONS TO VISIBILITY.

* THESE REPORTS ARE NOT UNDER NWS QUALITY CONTROL AND MAY NOT
  REPORT WEATHER SUCH AS PRECIPITATION AND FOG.

KYZ079-080-083-085-087-088-110-112-115-119-120-191200
...EASTERN KENTUCKY...

CITY           SKY/WX    TMP DP  RH WIND       PRES   REMARKS
JACKSON        PTCLDY    38  36  92 CALM      30.08S
LONDON         PTCLDY    38  35  89 CALM      30.06F
SOMERSET*      CLOUDY    37  37 100 CALM      30.08S
MONTICELLO*    CLOUDY    41  39  93 VRB5      30.07F
WILLIAMSBURG*  MOSUNNY   39  39 100 E3        30.06F
MIDDLESBORO*   CLOUDY    38  38 100 CALM      30.09F
HARLAN APT*    CLOUDY    36  36 100 CALM      30.09S
PIKE CO APT*     N/A     36  36 100 S3        30.08S
MOREHEAD APT*  PTSUNNY   37  36  93 CALM      30.11S
ASHLAND*       MOCLDY    39  36  87 CALM      30.10S
$$

KYZ035-036-041-042-044-050-067-078-099-191200
...CENTRAL KENTUCKY...

CITY           SKY/WX    TMP DP  RH WIND       PRES   REMARKS
MT STERLING*   CLOUDY    37  36  93 CALM      30.10S
FLEMING/MASON* MOCLDY    36  36  99 CALM      30.11F FOG
DANVILLE*      CLOUDY    36  36 100 CALM      30.08S
LEXINGTON      CLOUDY    40  36  86 E6        30.07F
FRANKFORT      MOCLDY    38  35  89 E3        30.07S
LOUISVILLE     CLOUDY    41  36  82 CALM      30.09R
LEBANON*         N/A     39  37  93 CALM      30.07F
GLASGOW*       CLOUDY    44  43  97 NE5       30.04F
BOWLING GREEN  CLOUDY    46  40  79 N5        30.04F
$$

KYZ091>093-OHZ055-061-077-WVZ005-015-034-035-042-191200
...SOUTHERN OHIO/WEST VIRGINIA...

CITY           SKY/WX    TMP DP  RH WIND       PRES   REMARKS
COVINGTON      CLOUDY    38  36  92 E3        30.09S
COLUMBUS       CLOUDY    40  36  86 SW7       30.11S
DAYTON         CLOUDY    36  34  92 SE3       30.09F
WILMINGTON     CLOUDY    37  35  92 N3        30.09S
HUNTINGTON     MOCLDY    40  36  86 E3        30.10S
CHARLESTON     CLOUDY    42  38  85 CALM      30.11S
PINEVILLE*     FOG       36  32  87 MISG      30.13F VSB 1/2
BECKLEY        FOG       35  35 100 E3        30.07S VSB 1/4
BLUEFIELD      CLOUDY    35  33  92 W5        30.06F WCI  31
LOGAN CO APT*    N/A     37  37 100 CALM      30.08F FOG
$$

VAZ002-007-008-TNZ017-027-036-066-071-191200
...SOUTHWEST VIRGINIA/EAST TENNESSEE...

CITY           SKY/WX    TMP DP  RH WIND       PRES   REMARKS
WISE*          CLOUDY    41  39  93 W7        30.08R
JONESVILLE*      N/A     37  37 100 CALM      30.11S
ABINGDON*      PTCLDY    40  38  96 CALM      30.08S
BRISTOL        PTCLDY    38  36  92 CALM      30.09S
MORRISTOWN*    SUNNY     43  39  87 CALM      30.06F
SEVIERVILLE*   SUNNY     37  37 100 CALM      30.07S
KNOXVILLE      MOCLDY    42  39  89 NE6       30.05F
LAFOLLETTE*    SUNNY     41  39  93 CALM      30.10F
OAK RIDGE      PTCLDY    43  40  89 CALM      30.08F
CROSSVILLE     CLOUDY    44  42  93 CALM      30.05F
NASHVILLE      CLOUDY    47  44  90 NE7       30.02F
$$

...KEY TO REMARKS...
VSB - VISIBILITY IN MILES
WCI - WIND CHILL INDEX
HX  - HEAT INDEX

$$




USA.gov is the U.S. government's official web portal to all federal, state and local government web resources and services.